Location: Freemans Gardens
(41.6414°N, 83.6077°W)
Time: 03:26:48
(UTC+00:00)

SAR-Lupe-4 - Pass Details

Date: 29 October 2020
Orbit: 481 x 484 km, 98.2° (Epoch: 22 November)

Event Time Altitude Azimuth Distance (km) Brightness Sun altitude
Rises 23:22:32 0° 15° (NNE) 2,552 7.0 -10.0°
Reaches altitude 10° 23:24:37 10° 18° (NNE) 1,667 6.0 -10.4°
Maximum altitude 23:28:10 70° 102° (ESE) 516 3.5 -11.0°
Drops below altitude 10° 23:31:43 10° 187° (S) 1,654 6.5 -11.7°
Sets 23:33:46 0° 190° (S) 2,529 7.4 -12.0°
